Regional Weather Roundup
Issued by NWS

Home | Current Version | Previous Version | Graphics & Text | Print | Product List | Glossary On
Versions: 1 2 3 4 5 6 7 8 9 10 11 12 13 14 15 16 17 18 19 20 21 22 23 24 25 26 27 28 29 30 31 32 33 34 35 36 37 38 39 40 41 42 43 44 45 46 47 48 49 50
000
ASUS45 KBOI 190010
RWRID
WEATHER ROUNDUP FOR IDAHO
NATIONAL WEATHER SERVICE BOISE ID
500 PM MST THU DEC 18 2014

NOTE: "FAIR" INDICATES FEW OR NO CLOUDS BELOW 12000 FEET
WITH NO SIGNIFICANT WEATHER AND/OR OBSTRUCTIONS TO VISIBILITY

IDZ012-014-190100-
SOUTHWEST IDAHO


CITY           SKY/WX    TMP DP  RH WIND       PRES   REMARKS
BOISE          CLOUDY    46  32  58 SE10      30.08S
CALDWELL       CLOUDY    45  28  53 E9        30.09F
MOUNTAIN HOME  MOCLDY    43  33  67 SE12      30.10R
$$

IDZ016-017-190100-
SOUTHCENTRAL IDAHO


CITY           SKY/WX    TMP DP  RH WIND       PRES   REMARKS
BURLEY         PTCLDY    39  29  67 NE3       30.10S
JEROME         CLOUDY    38  30  73 NE9       30.11R WCI  31
TWIN FALLS     MOCLDY    35  28  75 SE8       30.10S WCI  29
$$

IDZ019>023-190100-
SOUTHEAST IDAHO


CITY           SKY/WX    TMP DP  RH WIND       PRES   REMARKS
IDAHO FALLS    CLOUDY    32  27  81 S3        30.12S
POCATELLO      MOCLDY    36  31  82 CALM      30.13R
REXBURG        CLOUDY    32  27  81 CALM      30.12S
$$

IDZ006-010-011-018-031-032-190100-
CENTRAL IDAHO MOUNTAINS


CITY           SKY/WX    TMP DP  RH WIND       PRES   REMARKS
MCCALL         CLOUDY    33  31  92 S6        30.03R WCI  28
HAILEY         MOCLDY    32  28  86 SE7       30.11R WCI  26
STANLEY          N/A     30  25  81 CALM      30.04R
SALMON         MOCLDY    28  19  69 CALM      30.07S
CHALLIS        CLOUDY    26  20  77 CALM      30.06S
$$

IDZ002-004-006-007-026-190100-
NORTHERN IDAHO


CITY           SKY/WX    TMP DP  RH WIND       PRES   REMARKS
LEWISTON       CLOUDY    45  38  76 SE7       29.99S
LOWELL           N/A     40  38  93 NW3       30.06S
COEUR D`ALENE  CLOUDY    41  36  81 S5        29.97R
MULLAN PASS    CLOUDY    29  27  92 S7        29.93S FOG     WCI  22
$$


USA.gov is the U.S. government's official web portal to all federal, state and local government web resources and services.